Погода в Сеймчане

Погода в Сеймчане : погода сейчас, прогноз погоды и архив. Всё, что Вы хотите узнать о погоде в Сеймчане!

Хотите узнать прогноз погоды в Сеймчане? Тогда Вам сюда: Погода в Сеймчане

Поиск расширенной информации на нашем сайте:

Другие новости

Новости СМИ2

Главная страница сайта

Новости сайта

03.07.2017

Напоминаем, что на нашем специализированном сайте Метеоцентр.Азия вы можете получить высокодетализированные автоматические прогнозы погоды по пунктам России, СНГ и мира в авиационном формате (включающие направление и скорость ветра, видимость, явления погоды, количество и форму облачности, нижнюю и верхнюю границу облачности).

Рекомендуем: Если плохие окна необходимо грамотно выбрать нащельник со склада.

Погода в Сеймчане - сегодня

Время (UTC), дата Ветер
(°,м/с) 
Видим.   Явления Облачность Т
(°С)
Тd
(°С)
f(%) Тe
(°С)
Pmin
(гПа)
dP
(гПа)
Po
(мм)
O2
(г/м3)
Тmin Tmax R s Состояние
почвы
18 13.11.18 тихо ()   20000 м  ледяные иглы{снег}  9/0 средняя, верхняя 
[Ac trans|Ci fib]
-29.3 -32.5 74 -29  1032.6  -0.5  752  341           
21 13.11.18 тихо ()   20000 м  ледяные иглы{снег}  9/0 средняя, верхняя 
[Ac trans|Ci fib]
-28.4 -31.6 74 -28  1032.2  -0.3  752  340  -33.7      32  равномерный
сухой снег
100% 
03 14.11.18 тихо ()   20000 м    9/0 средняя, верхняя 
[Ac trans|Ci fib]
-23 -27.4 67 -23  1030  -0.4  751  332           
06 14.11.18 тихо ()   20000 м    9/0 средняя, верхняя 
[Ac trans|Ci fib]
-23.4 -26.8 74 -23  1029.8  -0.2  751  333           
12 14.11.18 тихо ()   20000 м    6/0 средняя, верхняя 
[Ac trans|Ci fib]
-27.2 -30 77 -27  1030.1  0.1  750  338           
15 14.11.18 280 (З) 20000 м    4/0 средняя, верхняя 
[Ac trans|Ci fib]
-28.8 -31.7 76 -29  1029.8  -0.5  750  340           
18 14.11.18 тихо ()   20000 м    6/0 верхняя 
[Ci fib]
-30.2 -33.2 75 -30  1030.1  0.1  750  342           
03 15.11.18 тихо ()   20000 м    3/0 верхняя 
[Ci fib]
-22.4 -27.1 65 -22  1028.1  -0.9  749  331           
06 15.11.18 тихо ()   20000 м    3/0 верхняя 
[Ci fib]
-27 -29.7 78 -27  1028.2  -0.4  749  337           
12 15.11.18 тихо ()   20000 м    8/0 верхняя 
[Ci fib]
-31.4 -34.6 73 -31  1027.9  -0.7  748  343           
15 15.11.18 290 (З) 20000 м    6/0 верхняя 
[Ci fib]
-32.3 -35.6 73 -33  1026.9  -1.2  748  344           
18 15.11.18 тихо ()   20000 м    6/0 верхняя 
[Ci fib]
-32.2 -35.5 73 -32  1026.1  -0.8  747  343           
21 15.11.18 тихо ()   20000 м  ледяные иглы{снег}  6/0 средняя, верхняя 
[Ac trans|Ci fib]
-33.6 -37.1 71 -34  1025.3  -0.9  746  345  -33.9      32  равномерный
сухой снег
100% 
12 16.11.18 тихо ()   20000 м  ледяные иглы{снег}  9/0 средняя, верхняя 
[Ac trans|Ci fib]
-31.4 -34.7 73 -31  1023.1  0.1  745  341           
15 16.11.18 тихо ()   20000 м  ледяные иглы{снег}  9/0 средняя, верхняя 
[Ac trans|Ci fib]
-32.4 -35.8 72 -32  1023.4  0.1  745  343           
18 16.11.18 тихо ()   20000 м  ледяные иглы{снег}  9/0 средняя, верхняя 
[Ac trans|Ci fib]
-33.4 -36.9 71 -33  1023.9  0.4  745  344           
21 16.11.18 тихо ()   20000 м  ледяные иглы{снег}  9/0 средняя, верхняя 
[Ac trans|Ci fib]
-29.6 -32.8 74 -30  1024.1  0.6  746  339  -34.3    0.0  32  равномерный
сухой снег
100% 
03 17.11.18 тихо ()   10 км  слаб. снег  10/4 1000 м средняя 
[Sc|As trans]
-23.7 -26.7 76 -24  1023.4  -0.4  746  331           
06 17.11.18 тихо ()   20000 м  слаб. снег  10/4 1000 м средняя 
[Sc|As trans]
-23 -25.8 78 -23  1023.8  0.5  746  330           
09 17.11.18 240 (ЮЗ) 10 км  слаб. снег  10/6 800 м средняя 
[Sc|As trans]
-22.4 -25 79 -23  1024.1  0.3  746  329    -22.4  0.3     
15 17.11.18 200 (Ю) 10 км  слаб. снег  10/6 600 м средняя 
[Sc|As trans]
-21.7 -24.2 80 -22  1024.4  747  329           
18 17.11.18 280 (З) 10 км  слаб. снег  10/4 600 м средняя 
[Sc|As trans]
-22.2 -24.4 82 -23  1024.4  747  329           
21 17.11.18 290 (З) 10 км  слаб. снег  10/5 800 м средняя 
[Sc|As trans]
-22 -24.2 82 -22  1024.1  -0.3  746  329  -22.4    0.2  32  равномерный
сухой снег
100% 
03 18.11.18 тихо ()   10 км  слаб. снег  10/4 600 м средняя 
[Sc|As trans]
-19.8 -22.9 76 -20  1022.5  -1.1  746  326           
09 18.11.18 230 (ЮЗ) 10 км  слаб. снег  10/6 800 м средняя 
[Sc|As trans]
-20.4 -22.8 81 -21  1022.5  745  326    -19.7  0.3     
Время (UTC), дата Ветер
(°,м/с) 
Видим.   Явления Облачность Т
(°С)
Тd
(°С)
f(%) Тe
(°С)
Pmin
(гПа)
dP
(гПа)
Po
(мм)
O2
(г/м3)
Тmin Tmax R s Состояние
почвы

Для получения пояснительной информации подведите курсор к названию столбца.

ПОГОДА в Сеймчане - архив

Всё, что Вы хотите узнать о погоде в Сеймчане - удобно и подробно!

Выберите нужную дату (начиная с 1 января 2015* года) и нажмите кнопку "Найти".
Будут отображены архивные сводки погоды по пункту Сеймчан, начиная с указанной даты.


Отображать данные в формате CSV (для использования в таблицах Excel)


Внимание! Наш архив погоды предназначен исключительно для личного некоммерческого использования в познавательных целях. Если Вам необходимы официальные справки о состоянии погоды (для производственных, юридических, коммерческих и т.п. целей), обращайтесь в органы Росгидромета.

*Примечание: данная дата относится к архиву по метеостанциям СССР (Россия, СНГ, Балтия).
Архив по метеостанциям Зарубежной Европы и Азии (кроме Китая) хранится 10 дней, по другим регионам земного шара (Китай, Африка, Америка, Австралия, Океания) - 1 день.

Сеймчан - район местоположения метеостанции


Название, широта, долгота, высота метеостанции:
Сеймчан 62.9°ш. 152.4°д. 205 м над ур. моря [Российская Федерация]

Дополнительная информация

В oтличие oт бoльшинства пoгoдных сайтoв мы публикуем пoдрoбную метеoинфoрмацию в детальнoм прoфессиoнальнoм фoрмате.

Характеристики температуры и влажнoсти вoздуха измеряются на высoте 2 м в тени вдали oт зданий и деревьев.
Скoрoсть ветра измеряется на высoте 10 м (на урoвне рoста челoвека скoрoсть ветра ниже в 1.5-2 раза). Если метеoстанция нахoдится в гoрoде или в лесу, тo скoрoсть ветра занижена на 2-4 м/с пo сравнению с oткрытым местoм. Скoрoсть ветра над акватoриями крупных рек и oзёр, а также на вершинах хoлмoв на 2-5 м/с выше, чем в oбычных услoвиях.
Атмoсфернoе давление в разных тoчках местнoсти мoжет значительнo oтличаться oт давления на метеoстанции, в зависимoсти oт услoвий рельефа (при пoдъёме на 10 м давление пoнижается примернo на 1 мм рт.ст.).